Погода в Сухорабовке

Украина / Полтавская область     49°29′19″N   33°50′00″E
темп.,
°C
ветер,
м/с
пор.,
м/с
влажн.,
%
обл.,
%
осадки,
мм/ч
давл.,
гПа
погр.,
м
21 апреля, ср
ср2100:00+9сз4891100 2.4 1005408
03:00+6з599782 2.7 1007275
06:00+7з598778 0.0 1009525
09:00+9з697121 0.0 1011927
12:00+11з686198 0.5 10121526
15:00+13з685485 1.3 10131857
18:00+11зюз576396 0.4 1014885
21:00+8юз34765 0.4 101648
22 апреля, чт
чт2200:00+7юз337816 0.0 101727
03:00+6ююз33795 0.0 101832
06:00+6ююз34825 0.0 101858
09:00+12ююз46655 0.0 1019438
12:00+16юз56465 0.0 10191853
15:00+18юз563887 0.0 10182431
18:00+16ююз4850100 0.0 1018321
21:00+11ю49655 0.0 1019167
23 апреля, пт
пт2300:00+10ю497333 0.0 1019159
03:00+9ю410806 0.0 1018208
06:00+7ююв511878 0.0 1018246
09:00+13ю7106731 0.0 1017613
12:00+17ююз9115176 0.5 10161890
15:00+15ююз91263100 1.6 10141636
18:00+10з81590100 5.2 10141086
21:00+8сз6893100 8.0 1014377
24 апреля, сб
сб2400:00+5сз6992100 4.6 1015743
03:00+4зсз47935 4.7 1016335
06:00+3з38945 0.0 1017266
09:00+8зсз46684 0.0 1017655
12:00+11з564483 0.0 10172257
15:00+11з6844100 0.1 10162051
18:00+8зюз5769100 0.8 1017934
21:00+5з2586100 1.5 1018199
25 апреля, вс
вс2500:00+4з410800 0.1 1018257
03:00+2з38850 0.1 1018198
06:00+2з39870 0.0 1018202
09:00+7з57604 0.0 1019802
12:00+9зюз8949100 0.0 10181971
15:00+9з795891 0.5 10181736
18:00+8з556535 0.5 10171072
21:00+5зюз228044 0.6 101842